Wind_Speed
34 33 34 35 36 37 39 40 42 41 40 38 38 38 38 38 38 38 38 37 36 35 34 34 34 34 35 34 34 34 33 34 34 34 34 34 34 35 35 35 35 36 36 36
33 32 33 35 35 37 38 40 42 42 42 40 40 40 39 38 38 38 38 37 36 35 35 35 34 34 35 34 34 34 33 34 34 35 35 35 35 35 35 35 35 35 35 35
32 32 33 35 34 35 36 37 39 41 40 40 40 40 40 39 39 39 39 39 38 37 35 35 34 34 34 34 34 34 34 35 35 35 35 35 35 35 35 34 34 34 34 33
33 32 34 33 33 35 36 37 37 38 39 39 40 40 40 39 39 39 39 39 38 37 36 35 35 34 33 33 34 34 34 34 34 34 34 34 34 34 34 33 32 32 32 32
32 33 35 34 34 34 35 36 37 38 38 38 38 39 40 40 39 39 39 39 38 37 36 35 35 35 34 33 33 33 33 33 33 33 33 33 32 32 32 32 31 31 31 31
31 32 33 32 33 33 34 36 36 38 38 38 38 39 38 38 38 38 39 39 38 37 36 36 36 35 35 34 34 33 33 32 32 32 32 31 31 31 31 30 31 31 31 31
30 30 31 31 32 32 33 34 35 36 37 37 38 37 36 36 36 37 38 37 37 36 36 35 36 35 35 34 34 33 32 31 31 31 30 30 30 30 30 30 30 30 30 31
29 30 30 30 30 31 33 34 35 36 36 37 36 36 36 36 35 35 35 36 36 35 35 35 35 35 35 34 33 33 32 32 31 30 30 30 30 29 29 30 30 30 29 29
30 30 30 30 31 31 32 33 34 34 34 35 35 35 34 34 35 34 34 34 35 35 35 35 35 35 34 33 33 32 32 31 31 30 29 29 29 29 29 29 30 29 29 30
29 29 30 30 31 32 32 33 33 32 33 34 34 33 33 33 33 33 33 33 33 34 34 34 34 34 34 33 33 32 31 31 31 30 29 29 29 28 28 28 28 29 29 29
30 30 31 31 31 31 30 31 31 30 30 31 31 31 31 31 31 31 31 31 32 32 32 32 32 32 32 32 32 31 30 30 30 29 28 28 28 28 28 28 28 28 29 29
29 30 31 30 30 30 30 29 29 29 28 28 29 29 29 28 28 29 29 30 30 30 31 31 31 31 30 30 30 30 29 29 29 29 28 28 27 27 27 27 27 28 29 29
28 28 29 29 30 30 31 30 29 29 29 28 28 28 28 27 27 27 28 28 29 29 29 29 29 29 29 29 28 28 28 28 28 28 28 27 27 27 27 28 28 28 28 29
27 27 27 28 29 29 29 29 29 28 27 27 27 26 26 25 26 26 27 28 27 27 27 27 28 28 28 28 28 27 26 27 27 27 27 26 26 27 28 28 28 29 29 29
27 28 28 27 27 27 27 26 26 26 26 26 25 25 25 24 25 25 27 27 27 26 26 26 27 27 28 28 28 27 27 26 27 27 26 26 27 27 27 28 28 29 30 30
26 26 26 25 25 25 25 24 24 24 24 24 24 24 24 24 24 24 25 26 26 26 26 26 26 27 27 27 27 27 27 27 27 26 26 26 27 27 28 28 28 29 30 30
23 24 24 24 24 23 23 23 22 22 22 22 22 22 22 22 23 23 24 25 25 25 25 26 26 26 27 27 27 26 26 26 26 27 27 27 28 28 28 29 29 30 30 30
22 22 22 22 22 21 21 20 20 20 20 21 22 22 23 23 23 23 23 23 24 24 25 25 25 25 26 26 25 26 26 26 27 27 28 28 28 29 29 29 29 30 30 30
21 21 21 21 21 20 19 19 20 19 19 20 21 21 22 22 22 22 22 23 23 24 24 24 24 25 25 26 26 26 27 27 28 28 29 29 29 29 29 29 30 30 30 31
21 21 21 21 20 20 19 19 19 20 20 20 20 21 21 21 21 21 22 22 23 23 23 23 24 24 25 26 27 27 27 28 28 29 29 29 29 29 30 30 30 30 31 31
21 21 21 21 21 20 20 19 19 20 20 19 19 19 20 20 21 21 21 22 23 23 24 24 24 25 26 27 28 28 28 28 29 29 29 29 30 30 30 30 30 31 31 31
20 20 20 20 19 19 19 18 18 18 18 18 19 19 19 20 21 21 22 22 22 23 23 23 24 25 26 27 27 27 28 28 29 29 29 29 29 30 30 31 31 31 31 31
19 19 19 19 18 18 18 18 18 18 17 17 17 18 18 19 20 21 22 23 23 23 23 24 24 25 25 25 26 27 27 28 28 28 28 29 29 30 30 31 31 31 31 30
18 18 18 18 18 18 18 18 18 18 18 18 18 19 19 19 20 21 22 23 24 24 25 25 26 26 26 27 27 28 28 28 29 29 29 30 30 30 31 31 31 31 31 30
18 18 18 17 17 17 18 18 18 18 18 18 19 19 20 20 21 21 22 23 24 25 25 26 27 27 27 27 28 28 28 29 29 29 30 30 31 31 31 31 31 31 30 30
18 18 17 17 17 17 18 18 18 18 18 18 18 19 20 21 21 22 23 23 24 24 25 26 27 27 27 27 27 28 28 28 29 29 29 29 29 29 30 30 30 30 30 30
17 17 17 18 18 18 18 18 18 18 18 18 18 19 20 20 21 22 22 23 23 23 24 25 25 26 26 26 26 26 27 27 27 27 28 28 29 29 29 29 29 30 30 30
Wind_Direction
271 268 264 263 261 261 261 261 261 261 261 261 262 264 265 265 265 264 264 264 264 264 264 265 265 264 264 264 265 265 265 265 266 267 268 269 270 271 271 271 271 271 270 268
273 271 268 265 264 263 263 262 262 262 261 261 261 261 262 262 261 261 261 261 262 262 263 263 263 263 263 264 265 266 267 266 267 267 268 269 270 271 271 271 271 270 269 267
274 272 270 271 270 267 266 264 263 262 263 261 261 260 261 261 261 260 259 259 259 260 262 262 262 262 262 263 264 266 267 267 268 268 269 269 270 270 271 271 270 268 266 265
276 274 272 275 273 271 270 267 265 264 264 263 261 261 260 260 261 260 258 257 258 260 261 261 262 261 261 262 264 266 268 268 268 269 270 271 271 270 270 271 268 267 266 265
276 276 275 274 274 274 272 269 266 265 264 264 263 263 261 260 261 260 258 257 257 258 260 261 261 262 261 262 264 266 268 268 267 269 269 270 270 270 270 268 267 267 267 266
278 277 277 279 277 274 273 271 269 268 266 265 265 263 262 260 260 258 257 257 257 258 259 259 260 261 261 262 264 266 268 267 268 268 269 270 270 270 269 268 267 267 267 267
277 276 276 277 275 274 272 272 271 270 269 268 267 265 264 262 261 259 256 255 256 257 258 259 259 259 261 263 264 265 267 267 268 269 269 270 270 269 268 268 267 267 266 266
275 273 273 275 274 273 273 273 272 272 271 270 268 267 266 263 261 259 256 256 256 257 257 258 258 259 260 262 264 264 265 266 268 269 270 270 270 269 268 267 265 264 265 265
274 272 273 273 273 273 273 274 274 273 271 270 268 267 265 263 260 259 256 257 257 257 256 257 258 259 259 261 262 263 264 265 267 268 269 269 269 268 267 266 264 263 264 265
275 274 271 271 271 272 273 274 275 274 272 270 268 266 264 261 259 259 256 257 258 257 256 256 258 259 260 260 261 263 264 265 266 267 267 268 267 266 266 265 264 263 265 265
276 275 271 272 272 271 271 272 274 275 275 272 268 266 264 260 257 257 257 258 258 256 254 255 256 258 259 259 260 260 262 264 265 266 266 266 265 264 264 264 263 265 265 265
281 277 275 276 274 271 272 272 272 272 271 271 269 266 263 260 257 257 256 258 258 256 255 255 256 257 257 258 258 258 261 263 264 265 264 263 262 262 262 263 264 265 266 266
282 281 280 277 275 273 273 273 273 271 270 269 268 265 262 259 256 256 257 259 258 257 255 255 256 256 256 256 256 257 259 261 262 262 262 261 260 260 261 261 263 265 265 266
281 281 281 281 277 275 275 275 274 272 270 269 267 263 261 261 258 258 259 260 259 257 255 255 255 255 255 255 255 256 258 259 260 261 261 261 261 260 260 260 262 264 264 266
282 283 285 285 282 279 276 275 273 271 269 267 264 260 260 260 259 260 261 262 261 258 256 256 256 256 255 255 256 256 258 259 261 262 261 261 261 260 260 261 262 263 265 267
284 283 284 285 283 281 278 275 273 273 271 267 262 259 259 259 260 261 261 260 260 259 258 257 257 257 256 256 255 256 257 259 260 261 261 261 262 262 262 263 264 266 268 270
287 285 283 283 283 281 279 277 274 272 270 267 262 259 257 258 259 261 261 260 259 259 258 257 256 257 256 256 255 255 256 258 260 261 261 262 262 263 264 265 267 268 270 273
291 291 287 285 285 282 281 279 274 272 271 268 265 261 258 256 257 258 259 258 257 257 257 257 256 256 255 254 254 256 257 258 260 261 261 263 263 263 264 266 268 269 271 274
293 294 293 289 286 283 280 278 275 273 273 270 267 265 262 260 259 258 258 257 257 257 257 256 256 257 256 254 255 257 258 259 260 261 262 262 262 263 265 267 269 271 273 276
295 295 294 291 287 284 281 278 275 273 272 270 267 266 265 263 262 260 258 257 258 258 258 257 258 258 257 257 258 259 260 261 263 264 264 264 264 265 266 268 271 273 275 277
295 295 294 292 289 287 284 281 276 273 270 268 268 265 264 263 263 262 261 259 258 259 258 258 259 260 260 260 260 261 262 263 265 265 265 265 265 266 267 269 271 273 274 276
294 293 293 291 290 288 286 284 280 275 271 270 268 266 264 263 263 262 261 260 260 260 260 260 260 261 263 262 261 262 263 264 265 265 265 266 266 267 268 269 271 272 273 275
295 294 292 291 288 286 285 284 282 279 273 269 267 267 267 265 264 264 263 262 262 263 263 263 263 263 264 264 264 264 264 264 265 265 265 266 267 268 269 270 271 272 273 273
296 295 293 290 288 286 286 286 283 278 273 270 270 271 271 270 269 269 268 267 265 264 264 265 264 264 264 264 265 265 265 265 265 265 265 267 268 269 270 271 271 271 272 273
297 295 293 291 290 289 288 286 284 282 277 274 273 272 272 272 272 272 272 271 269 267 266 266 266 266 266 265 265 265 266 266 266 266 266 268 269 269 270 271 271 272 272 272
301 299 296 292 290 289 288 287 285 282 280 278 277 276 275 275 274 274 274 273 272 270 269 268 268 267 267 267 267 267 268 267 266 267 268 268 269 269 270 271 271 271 271 272
304 303 301 298 296 294 293 290 287 283 280 279 279 279 278 277 277 276 275 274 273 272 271 270 269 268 268 268 268 269 269 269 268 268 268 269 269 270 270 271 271 271 271 271
Height
5566 5566 5567 5567 5568 5569 5570 5571 5572 5575 5576 5578 5579 5578 5580 5581 5582 5583 5584 5586 5587 5587 5588 5589 5590 5591 5592 5592 5593 5594 5594 5595 5595 5596 5596 5596 5596 5596 5596 5596 5596 5596 5596 5596
5557 5557 5556 5557 5558 5559 5560 5560 5561 5563 5565 5567 5567 5568 5569 5570 5571 5572 5574 5575 5576 5577 5578 5579 5580 5581 5582 5583 5583 5584 5584 5585 5585 5586 5586 5586 5586 5586 5586 5585 5585 5585 5585 5586
5547 5547 5546 5547 5550 5549 5549 5550 5550 5550 5554 5554 5555 5556 5557 5558 5559 5561 5563 5564 5566 5567 5568 5569 5570 5571 5572 5573 5574 5574 5574 5575 5575 5575 5576 5576 5576 5576 5575 5575 5575 5575 5576 5576
5537 5537 5537 5542 5540 5539 5539 5539 5540 5540 5541 5542 5542 5544 5545 5547 5548 5549 5551 5553 5555 5556 5558 5559 5560 5561 5562 5563 5564 5564 5565 5565 5565 5565 5565 5566 5566 5565 5565 5565 5565 5566 5566 5567
5527 5526 5527 5530 5530 5529 5528 5528 5529 5529 5530 5531 5531 5531 5534 5535 5536 5538 5540 5542 5544 5546 5547 5549 5550 5551 5552 5553 5554 5554 5555 5555 5555 5555 5556 5556 5555 5556 5555 5556 5556 5557 5557 5558
5518 5517 5517 5520 5519 5519 5519 5518 5519 5518 5519 5520 5520 5521 5523 5524 5525 5526 5528 5530 5532 5534 5536 5538 5539 5540 5542 5543 5544 5545 5545 5545 5545 5546 5546 5546 5546 5546 5546 5546 5547 5547 5548 5548
5510 5508 5508 5510 5509 5509 5510 5509 5508 5508 5508 5509 5509 5510 5512 5512 5514 5515 5517 5519 5521 5524 5525 5527 5529 5530 5531 5533 5534 5535 5535 5536 5536 5536 5536 5536 5536 5536 5537 5537 5538 5538 5539 5540
5502 5501 5503 5500 5500 5500 5499 5498 5498 5497 5497 5498 5498 5499 5500 5501 5503 5504 5506 5508 5511 5513 5515 5516 5518 5520 5521 5523 5524 5525 5525 5526 5527 5527 5527 5527 5527 5528 5528 5528 5529 5530 5531 5531
5493 5494 5492 5490 5490 5489 5489 5488 5488 5487 5487 5488 5488 5489 5490 5491 5492 5494 5496 5498 5500 5502 5505 5506 5508 5510 5511 5513 5513 5514 5515 5516 5517 5518 5518 5519 5519 5519 5519 5520 5521 5521 5522 5523
5484 5484 5483 5482 5481 5480 5479 5478 5478 5477 5477 5477 5478 5478 5479 5481 5482 5484 5486 5488 5490 5492 5494 5496 5498 5500 5501 5503 5504 5505 5506 5507 5508 5508 5509 5510 5510 5510 5511 5512 5512 5513 5514 5514
5475 5476 5474 5474 5472 5471 5470 5469 5468 5468 5468 5467 5468 5468 5469 5471 5473 5474 5476 5479 5480 5482 5484 5486 5488 5490 5492 5493 5494 5496 5497 5498 5499 5499 5500 5501 5501 5502 5502 5503 5504 5505 5506 5506
5467 5466 5464 5464 5462 5461 5461 5460 5459 5459 5459 5459 5459 5459 5460 5461 5463 5465 5467 5469 5470 5472 5474 5477 5479 5480 5482 5483 5485 5487 5488 5489 5490 5491 5491 5492 5493 5493 5494 5495 5495 5496 5496 5497
5458 5457 5455 5454 5454 5453 5451 5451 5451 5450 5450 5450 5450 5451 5451 5453 5454 5456 5458 5460 5462 5463 5465 5468 5469 5471 5473 5474 5476 5477 5479 5480 5481 5482 5483 5484 5484 5485 5486 5487 5487 5487 5488 5488
5451 5449 5448 5447 5445 5444 5443 5442 5442 5442 5442 5442 5442 5443 5444 5445 5447 5448 5450 5452 5453 5455 5457 5459 5461 5462 5464 5466 5467 5469 5470 5471 5473 5474 5474 5475 5476 5477 5478 5478 5479 5479 5480 5480
5443 5441 5440 5439 5437 5436 5435 5434 5434 5434 5434 5434 5435 5435 5436 5438 5439 5441 5442 5444 5445 5447 5448 5450 5452 5454 5455 5457 5459 5460 5462 5463 5464 5465 5466 5467 5467 5468 5469 5470 5470 5471 5471 5471
5436 5434 5432 5431 5429 5428 5427 5427 5427 5426 5426 5427 5427 5428 5429 5430 5432 5433 5434 5436 5437 5439 5440 5442 5444 5445 5447 5449 5450 5452 5453 5455 5456 5457 5457 5458 5459 5460 5460 5461 5461 5462 5462 5462
5428 5427 5425 5424 5423 5421 5421 5420 5420 5419 5419 5420 5420 5421 5422 5423 5424 5426 5427 5428 5429 5431 5432 5434 5435 5437 5439 5440 5442 5443 5445 5446 5447 5448 5449 5450 5450 5451 5452 5452 5453 5453 5453 5453
5422 5420 5418 5417 5416 5415 5414 5414 5413 5413 5413 5413 5414 5414 5415 5416 5417 5418 5419 5421 5422 5423 5424 5426 5427 5429 5430 5432 5433 5435 5436 5438 5439 5439 5440 5441 5441 5442 5443 5443 5444 5444 5444 5443
5415 5414 5412 5410 5409 5409 5408 5408 5408 5408 5407 5407 5408 5408 5409 5409 5410 5411 5412 5413 5415 5416 5417 5418 5420 5421 5422 5424 5425 5426 5428 5429 5430 5431 5431 5432 5433 5433 5434 5434 5435 5435 5435 5434
5409 5408 5406 5405 5403 5403 5402 5402 5402 5401 5401 5401 5401 5402 5402 5403 5404 5405 5405 5406 5407 5409 5410 5411 5412 5413 5415 5416 5417 5418 5419 5420 5421 5422 5422 5423 5424 5424 5425 5425 5425 5425 5425 5425
5404 5402 5400 5399 5398 5397 5396 5396 5396 5395 5395 5395 5395 5396 5396 5397 5397 5398 5399 5400 5401 5402 5403 5404 5404 5405 5406 5407 5408 5409 5410 5411 5412 5412 5413 5414 5414 5415 5415 5416 5416 5415 5415 5415
5398 5396 5395 5393 5392 5392 5391 5390 5389 5389 5389 5389 5389 5390 5390 5391 5391 5392 5392 5393 5394 5395 5395 5396 5397 5397 5398 5399 5400 5401 5401 5402 5402 5403 5404 5404 5405 5405 5405 5406 5406 5406 5405 5405
5393 5391 5389 5388 5387 5386 5385 5385 5384 5383 5383 5383 5383 5384 5384 5384 5384 5385 5386 5386 5386 5387 5388 5388 5389 5389 5390 5390 5391 5392 5392 5393 5393 5394 5394 5395 5395 5396 5396 5396 5396 5396 5396 5395
5388 5386 5384 5383 5382 5381 5380 5379 5378 5378 5377 5377 5377 5377 5377 5378 5378 5378 5378 5378 5379 5379 5380 5380 5380 5381 5381 5382 5382 5382 5383 5383 5384 5384 5385 5386 5386 5386 5386 5386 5386 5386 5385 5385
5383 5381 5379 5378 5377 5376 5375 5374 5373 5372 5372 5371 5371 5371 5371 5371 5371 5371 5370 5371 5371 5371 5371 5371 5371 5372 5372 5372 5373 5373 5373 5374 5374 5375 5375 5376 5376 5376 5376 5376 5376 5376 5375 5375
5378 5376 5375 5373 5372 5371 5370 5369 5368 5367 5366 5365 5365 5365 5364 5364 5364 5363 5363 5363 5363 5363 5363 5362 5362 5363 5363 5363 5363 5364 5364 5364 5364 5365 5365 5365 5365 5366 5365 5365 5365 5365 5365 5365
5374 5372 5370 5369 5367 5366 5364 5363 5362 5361 5360 5360 5359 5358 5358 5357 5357 5356 5356 5355 5355 5355 5354 5354 5354 5354 5354 5354 5354 5354 5354 5355 5355 5355 5355 5355 5355 5355 5355 5355 5355 5355 5354 5354